[Date Prev][Date Next][Thread Prev][Thread Next] - [Date Index][Thread Index][Author Index]

2 Line ISS Keps 4-28



ISS
1 25544U 98067A   06117.95241549  .00008477  00000-0  58165-4 0  8189
2 25544 051.6381 086.0584 0008810 157.2913 320.3552 15.75680958425243
----
Via the sarex mailing list at AMSAT.ORG courtesy of AMSAT-NA.
To unsubscribe, send "unsubscribe sarex" to Majordomo@amsat.org



AMSAT Top AMSAT Home